Location: Ferintosh
(52.7647°N, 112.9692°W)
Time: 14:16:51
(UTC+00:00)

Transit 2A Rocket - Pass Details

Date: 21 May 2024
Orbit: 583 x 910 km, 66.7° (Epoch: 22 June)

Event Time Altitude Azimuth Distance (km) Brightness Sun altitude
Rises 14:16:38 0° 268° (W) 3,105 7.6 23.3°
Reaches altitude 10° 14:19:16 10° 281° (W) 2,245 6.9 23.7°
Maximum altitude 14:23:34 26° 337° (NNW) 1,512 6.5 24.3°
Drops below altitude 10° 14:28:12 10° 33° (NNE) 2,435 8.2 25.0°
Sets 14:31:11 0° 46° (NE) 3,423 9.0 25.5°
